CZ-6A DEB

Satellite information

Favourite Embed

Satellite Type and Status

DEBRISIN ORBIT

Key statistics

Satellite CZ-6A DEB at a glance.

Uptime

1129

Days in orbit

Revolutions

≈ 14.0

Per day

Orbit

SSO

Sun Synchronous Orbit

Inclination

98.9

Latest

Satellite identification and parameters

Extended collection of information and parameters for CZ-6A DEB.

Object identification

Identified? True

Debris? True

Object name: CZ-6A DEB

International designator: 2022-151AGG

Object number (NORAD): 56656

Object ID (CCSDS): 56656

Country: PEOPLES REPUBLIC OF CHINA (PRC)

Current information (Y/N): Y

RCS size: SMALL

Orbital parameters

Period: 102.943 minutes

Inclination: 98.8554 deg

SMA: 7275.966 km

Apoapsis: 986.343 km

Periapsis: 809.319 km

RAAN: 319.1565 deg

Eccentricy: 0.01216496

Argument of periapsis: 228.0467 deg

Mean anomaly: 131.0281 deg

Mean motion: 13.98835981 rev/day

Mean motion (dot): 0.00000925 rev/day2

B* drag term: 0.00063071278 1/REarth

Two-line elements (TLE)

Creation date: Dec. 13, 2025, 5:47 p.m.

Reference frame: TEME

Reference center: EARTH

Epoch: Dec. 13, 2025, 3:58 a.m. UTC

TLE line 0: 0 CZ-6A DEB

TLE line 1: 1 56656U 22151AGG 25347.16539222 .00000925 00000-0 63071-3 0 9996

TLE line 2: 2 56656 98.8554 319.1565 0121650 228.0467 131.0281 13.98835981134406

Live tracking on map

Real-time ground track for satellite CZ-6A DEB.

In-orbit conjunctions

A list of the most updated potential collisions computed for object CZ-6A DEB.

Target Orbit TCA Probability of collision Miss distance Type
COSMOS 2315 LEO 2025-10-02 19:54:41 0.0001174903 324.0 (m) PAYLOAD
COSMOS 1697 LEO 2025-07-11 17:52:31 0.0002249894 248.0 (m) PAYLOAD
METEOR 2-21 LEO 2024-10-09 01:09:44 0.0003992808 656.0 (m) PAYLOAD

Associated space launch

Chinese satellite reported for atmospheric/ocean/environmental/spatial parameter research purposes, details TBD.

CZ-6A DEB was lifted into orbit during the mission ‘Long March 6A | Yunhai 3’, on board a Long March 6A space rocket.

The launch took place on Nov. 11, 2022, 10:52 p.m. from Launch Complex 9A.

For more information about the launch, click the button.

Launch to space Long March 6A | Yunhai 3
Long March 6A | Yunhai 3

Agency: N/A

Status: Launch Successful

Launch date: Nov. 11, 2022, 10:52 p.m. UTC

Rocket: Long March 6A

Launch pad: Launch Complex 9A

Location: Taiyuan Satellite Launch Center, People's Republic of China

...

Latest news about this satellite

There are no fresh news available about this satellite. Check back as we update our databases every day.


Newsletter sign-up

Weekly statistics, charts and insights to help you stay on top of the space industry.